Time,TemperatureF,DewpointF,PressureIn,WindDirection,WindDirectionDegrees,WindSpeedMPH,WindSpeedGustMPH,Humidity,HourlyPrecipIn,Conditions,Clouds,dailyrainin,SoftwareType,DateUTC
2013-03-10 00:01:00,62.8,52.9,30.17,ENE,72,3.0,8.0,70,0.00,,,0.00,meteohub,2013-03-10 05:01:00,
2013-03-10 00:06:00,62.6,53.1,30.17,East,98,6.0,7.0,71,0.00,,,0.00,meteohub,2013-03-10 05:06:00,
2013-03-10 00:11:00,62.4,52.9,30.17,East,94,1.0,7.0,71,0.00,,,0.00,meteohub,2013-03-10 05:11:00,
2013-03-10 00:16:00,62.4,53.2,30.17,East,92,2.0,7.0,72,0.00,,,0.00,meteohub,2013-03-10 05:16:00,
2013-03-10 00:21:00,62.2,53.4,30.17,East,93,0.0,7.0,73,0.00,,,0.00,meteohub,2013-03-10 05:21:00,
2013-03-10 00:26:00,62.1,53.6,30.16,East,86,3.0,5.0,74,0.00,,,0.00,meteohub,2013-03-10 05:26:00,
2013-03-10 00:31:00,61.9,53.4,30.16,ENE,72,3.0,7.0,74,0.00,,,0.00,meteohub,2013-03-10 05:31:00,
2013-03-10 00:36:00,61.7,52.9,30.16,East,96,2.0,7.0,73,0.00,,,0.00,meteohub,2013-03-10 05:36:00,
2013-03-10 00:41:00,61.5,52.7,30.17,NE,55,2.0,8.0,73,0.00,,,0.00,meteohub,2013-03-10 05:41:00,
2013-03-10 00:46:00,61.5,52.7,30.16,East,97,3.0,8.0,73,0.00,,,0.00,meteohub,2013-03-10 05:46:00,
2013-03-10 00:51:00,61.3,52.7,30.16,NE,40,3.0,8.0,73,0.00,,,0.00,meteohub,2013-03-10 05:51:00,
2013-03-10 00:56:00,61.3,52.7,30.15,East,90,0.0,6.0,73,0.00,,,0.00,meteohub,2013-03-10 05:56:00,
2013-03-10 01:01:00,61.2,52.5,30.15,NE,53,3.0,7.0,73,0.00,,,0.00,meteohub,2013-03-10 06:01:00,
2013-03-10 01:06:00,61.2,52.5,30.15,ENE,66,1.0,7.0,73,0.00,,,0.00,meteohub,2013-03-10 06:06:00,
2013-03-10 01:11:00,61.0,52.3,30.15,NE,42,3.0,7.0,73,0.00,,,0.00,meteohub,2013-03-10 06:11:00,
2013-03-10 01:16:00,61.0,52.3,30.15,NNE,21,7.0,7.0,73,0.00,,,0.00,meteohub,2013-03-10 06:16:00,
2013-03-10 01:21:00,60.8,52.2,30.15,ENE,61,2.0,7.0,73,0.00,,,0.00,meteohub,2013-03-10 06:21:00,
2013-03-10 01:26:00,60.6,52.0,30.15,NNE,12,4.0,7.0,73,0.00,,,0.00,meteohub,2013-03-10 06:26:00,
2013-03-10 01:31:00,60.4,52.2,30.15,NE,49,1.0,7.0,74,0.00,,,0.00,meteohub,2013-03-10 06:31:00,
2013-03-10 01:36:00,60.4,52.2,30.15,ESE,111,2.0,-999.0,74,-99.99,,,0.00,meteohub,2013-03-10 06:36:00,
2013-03-10 01:41:00,60.4,52.5,30.15,East,79,1.0,-999.0,75,-99.99,,,0.00,meteohub,2013-03-10 06:41:00,
2013-03-10 01:46:00,60.3,52.7,30.14,NE,49,2.0,-999.0,76,-99.99,,,0.00,meteohub,2013-03-10 06:46:00,
2013-03-10 01:51:00,60.3,52.7,30.14,East,84,2.0,-999.0,76,-99.99,,,0.00,meteohub,2013-03-10 06:51:00,
2013-03-10 01:56:00,60.3,52.7,30.14,East,84,1.0,-999.0,76,-99.99,,,0.00,meteohub,2013-03-10 06:56:00,
2013-03-10 03:01:00,60.3,53.1,30.14,East,86,2.0,-999.0,77,-99.99,,,0.00,meteohub,2013-03-10 07:01:00,
2013-03-10 03:06:00,60.1,52.9,30.14,NNE,27,2.0,-999.0,77,-99.99,,,0.00,meteohub,2013-03-10 07:06:00,
2013-03-10 03:11:00,59.9,53.1,30.15,East,84,0.0,-999.0,78,-99.99,,,0.00,meteohub,2013-03-10 07:11:00,
2013-03-10 03:16:00,59.9,53.1,30.15,East,94,2.0,-999.0,78,-99.99,,,0.00,meteohub,2013-03-10 07:16:00,
2013-03-10 03:21:00,59.7,53.2,30.15,East,101,1.0,-999.0,79,-99.99,,,0.00,meteohub,2013-03-10 07:21:00,
2013-03-10 03:26:00,59.7,53.2,30.15,East,83,1.0,-999.0,79,-99.99,,,0.00,meteohub,2013-03-10 07:26:00,
2013-03-10 03:31:00,59.7,53.6,30.15,ENE,63,1.0,-999.0,80,-99.99,,,0.00,meteohub,2013-03-10 07:31:00,
2013-03-10 03:36:00,59.7,53.6,30.14,East,94,0.0,-999.0,80,-99.99,,,0.00,meteohub,2013-03-10 07:36:00,
2013-03-10 03:41:00,59.7,53.6,30.14,ESE,103,1.0,-999.0,80,-99.99,,,0.00,meteohub,2013-03-10 07:41:00,
2013-03-10 03:46:00,59.7,54.0,30.13,NNE,20,0.0,-999.0,81,-99.99,,,0.00,meteohub,2013-03-10 07:46:00,
2013-03-10 03:51:00,59.7,54.0,30.13,NNE,17,3.0,-999.0,81,-99.99,,,0.00,meteohub,2013-03-10 07:51:00,
2013-03-10 03:56:00,59.7,54.0,30.13,ENE,74,3.0,-999.0,81,-99.99,,,0.00,meteohub,2013-03-10 07:56:00,
2013-03-10 04:06:00,59.4,53.8,30.12,NNE,27,6.0,-999.0,82,-99.99,,,0.00,meteohub,2013-03-10 08:06:00,
2013-03-10 04:11:00,59.4,53.8,30.12,ENE,65,4.0,-999.0,82,-99.99,,,0.00,meteohub,2013-03-10 08:11:00,
2013-03-10 04:16:00,59.2,53.6,30.12,NNE,18,2.0,-999.0,82,-99.99,,,0.00,meteohub,2013-03-10 08:16:00,
2013-03-10 04:21:00,59.2,53.6,30.12,NNE,32,0.0,-999.0,82,-99.99,,,0.00,meteohub,2013-03-10 08:21:00,
2013-03-10 04:26:00,59.0,53.8,30.12,NE,42,1.0,-999.0,83,-99.99,,,0.00,meteohub,2013-03-10 08:26:00,
2013-03-10 04:31:00,58.8,53.6,30.13,East,80,3.0,-999.0,83,-99.99,,,0.00,meteohub,2013-03-10 08:31:00,
2013-03-10 04:36:00,58.8,53.6,30.12,East,101,0.0,-999.0,83,-99.99,,,0.00,meteohub,2013-03-10 08:36:00,
2013-03-10 04:41:00,58.6,53.4,30.13,East,81,1.0,-999.0,83,-99.99,,,0.00,meteohub,2013-03-10 08:41:00,
2013-03-10 04:46:00,58.6,53.4,30.12,East,80,1.0,-999.0,83,-99.99,,,0.00,meteohub,2013-03-10 08:46:00,
2013-03-10 04:51:00,58.5,53.6,30.12,ESE,102,0.0,-999.0,84,-99.99,,,0.00,meteohub,2013-03-10 08:51:00,
2013-03-10 04:56:00,58.5,53.6,30.12,East,86,1.0,-999.0,84,-99.99,,,0.00,meteohub,2013-03-10 08:56:00,
2013-03-10 05:01:00,58.3,53.4,30.12,ENE,61,1.0,-999.0,84,-99.99,,,0.00,meteohub,2013-03-10 09:01:00,
2013-03-10 05:06:00,58.3,53.4,30.12,East,94,2.0,-999.0,84,-99.99,,,0.00,meteohub,2013-03-10 09:06:00,
2013-03-10 05:11:00,58.3,53.4,30.12,ENE,57,1.0,-999.0,84,-99.99,,,0.00,meteohub,2013-03-10 09:11:00,
2013-03-10 05:16:00,58.3,53.4,30.12,East,90,2.0,-999.0,84,-99.99,,,0.00,meteohub,2013-03-10 09:16:00,
2013-03-10 05:21:00,58.3,53.8,30.12,East,101,1.0,-999.0,85,-99.99,,,0.00,meteohub,2013-03-10 09:21:00,
2013-03-10 05:26:00,58.3,53.8,30.12,ENE,75,0.0,-999.0,85,-99.99,,,0.00,meteohub,2013-03-10 09:26:00,
2013-03-10 05:31:00,58.3,53.8,30.12,East,88,2.0,-999.0,85,-99.99,,,0.00,meteohub,2013-03-10 09:31:00,
2013-03-10 05:36:00,58.3,53.8,30.12,NE,40,2.0,-999.0,85,-99.99,,,0.00,meteohub,2013-03-10 09:36:00,
2013-03-10 05:41:00,58.5,54.0,30.12,NE,56,1.0,-999.0,85,-99.99,,,0.00,meteohub,2013-03-10 09:41:00,
2013-03-10 05:46:00,58.5,54.0,30.12,East,86,1.0,-999.0,85,-99.99,,,0.00,meteohub,2013-03-10 09:46:00,
2013-03-10 05:51:00,58.5,54.0,30.12,ENE,76,2.0,-999.0,85,-99.99,,,0.00,meteohub,2013-03-10 09:51:00,
2013-03-10 05:56:00,58.5,54.0,30.12,East,82,2.0,-999.0,85,-99.99,,,0.00,meteohub,2013-03-10 09:56:00,
2013-03-10 06:01:00,58.5,54.0,30.12,East,84,2.0,-999.0,85,-99.99,,,0.00,meteohub,2013-03-10 10:01:00,
2013-03-10 06:06:00,58.5,54.0,30.12,ENE,69,0.0,-999.0,85,-99.99,,,0.00,meteohub,2013-03-10 10:06:00,
2013-03-10 06:11:00,58.3,53.8,30.12,NE,50,4.0,-999.0,85,-99.99,,,0.00,meteohub,2013-03-10 10:11:00,
2013-03-10 06:16:00,58.3,54.1,30.12,NNE,24,2.0,-999.0,86,-99.99,,,0.00,meteohub,2013-03-10 10:16:00,
2013-03-10 06:21:00,58.3,54.1,30.13,NNE,27,2.0,-999.0,86,-99.99,,,0.00,meteohub,2013-03-10 10:21:00,
2013-03-10 06:26:00,58.3,54.1,30.13,NNE,17,3.0,-999.0,86,-99.99,,,0.00,meteohub,2013-03-10 10:26:00,
2013-03-10 06:31:00,58.3,54.1,30.13,NNE,21,2.0,-999.0,86,-99.99,,,0.00,meteohub,2013-03-10 10:31:00,
2013-03-10 06:36:00,58.1,54.0,30.13,NE,55,0.0,-999.0,86,-99.99,,,0.00,meteohub,2013-03-10 10:36:00,
2013-03-10 06:41:00,57.9,53.8,30.12,NE,44,1.0,-999.0,86,-99.99,,,0.00,meteohub,2013-03-10 10:41:00,
2013-03-10 06:46:00,57.9,53.8,30.13,East,99,1.0,-999.0,86,-99.99,,,0.00,meteohub,2013-03-10 10:46:00,
2013-03-10 06:51:00,57.7,53.6,30.13,East,94,0.0,7.0,86,-99.99,,,0.00,meteohub,2013-03-10 10:51:00,
2013-03-10 06:56:00,57.7,53.6,30.13,ENE,70,0.0,7.0,86,-99.99,,,0.00,meteohub,2013-03-10 10:56:00,
2013-03-10 07:01:00,57.7,54.0,30.14,ESE,102,0.0,5.0,87,-99.99,,,0.00,meteohub,2013-03-10 11:01:00,
2013-03-10 07:06:00,57.6,53.8,30.13,East,80,1.0,3.0,87,-99.99,,,0.00,meteohub,2013-03-10 11:06:00,
2013-03-10 07:11:00,57.6,53.8,30.14,ENE,69,0.0,3.0,87,-99.99,,,0.00,meteohub,2013-03-10 11:11:00,
2013-03-10 07:16:00,57.6,53.8,30.14,ENE,57,0.0,3.0,87,-99.99,,,0.00,meteohub,2013-03-10 11:16:00,
2013-03-10 07:21:00,57.4,53.6,30.14,NE,53,0.0,3.0,87,-99.99,,,0.00,meteohub,2013-03-10 11:21:00,
2013-03-10 07:26:00,57.4,53.6,30.14,ENE,76,1.0,2.0,87,-99.99,,,0.00,meteohub,2013-03-10 11:26:00,
2013-03-10 07:31:00,57.4,53.8,30.15,NNE,25,1.0,2.0,88,-99.99,,,0.00,meteohub,2013-03-10 11:31:00,
2013-03-10 07:36:00,57.2,53.6,30.15,NE,39,1.0,2.0,88,0.00,,,0.00,meteohub,2013-03-10 11:36:00,
2013-03-10 07:41:00,57.2,53.6,30.15,NE,43,0.0,2.0,88,0.00,,,0.00,meteohub,2013-03-10 11:41:00,
2013-03-10 07:46:00,57.2,53.6,30.15,NE,53,0.0,2.0,88,0.00,,,0.00,meteohub,2013-03-10 11:46:00,
2013-03-10 07:51:00,57.2,53.6,30.15,NE,54,0.0,2.0,88,0.00,,,0.00,meteohub,2013-03-10 11:51:00,
2013-03-10 07:56:00,57.0,53.4,30.15,NE,54,0.0,2.0,88,0.00,,,0.00,meteohub,2013-03-10 11:56:00,
2013-03-10 08:01:00,57.0,53.4,30.15,NE,54,0.0,1.0,88,0.00,,,0.00,meteohub,2013-03-10 12:01:00,
2013-03-10 08:06:00,57.2,54.0,30.15,NE,54,0.0,1.0,89,0.00,,,0.00,meteohub,2013-03-10 12:06:00,
2013-03-10 08:11:00,57.4,54.1,30.15,NE,54,0.0,2.0,89,0.00,,,0.00,meteohub,2013-03-10 12:11:00,
2013-03-10 08:16:00,57.6,54.3,30.15,NE,45,0.0,2.0,89,0.00,,,0.00,meteohub,2013-03-10 12:16:00,
2013-03-10 08:21:00,57.7,54.1,30.16,ENE,59,0.0,2.0,88,0.00,,,0.00,meteohub,2013-03-10 12:21:00,
2013-03-10 08:26:00,57.9,54.3,30.16,NE,55,0.0,2.0,88,0.00,,,0.00,meteohub,2013-03-10 12:26:00,
2013-03-10 08:31:00,58.1,54.5,30.16,NE,55,0.0,2.0,88,0.00,,,0.00,meteohub,2013-03-10 12:31:00,
2013-03-10 08:36:00,58.5,54.7,30.17,NE,55,0.0,2.0,87,0.00,,,0.00,meteohub,2013-03-10 12:36:00,
2013-03-10 08:41:00,58.6,54.9,30.17,NE,50,0.0,1.0,87,0.00,,,0.00,meteohub,2013-03-10 12:41:00,
2013-03-10 08:46:00,58.8,54.7,30.16,NE,49,2.0,3.0,86,0.00,,,0.00,meteohub,2013-03-10 12:46:00,
2013-03-10 08:51:00,59.2,55.0,30.16,NE,51,0.0,3.0,86,0.00,,,0.00,meteohub,2013-03-10 12:51:00,
2013-03-10 08:56:00,59.4,55.2,30.16,ENE,59,0.0,3.0,86,0.00,,,0.00,meteohub,2013-03-10 12:56:00,
2013-03-10 09:01:00,59.7,55.2,30.16,NE,43,0.0,3.0,85,0.00,,,0.00,meteohub,2013-03-10 13:01:00,
2013-03-10 09:06:00,60.1,55.2,30.16,NE,49,2.0,3.0,84,0.00,,,0.00,meteohub,2013-03-10 13:06:00,
2013-03-10 09:11:00,60.4,55.2,30.16,NNE,32,2.0,4.0,83,0.00,,,0.00,meteohub,2013-03-10 13:11:00,
2013-03-10 09:16:00,61.2,55.6,30.16,ENE,71,0.0,4.0,82,0.00,,,0.00,meteohub,2013-03-10 13:16:00,
2013-03-10 09:21:00,62.1,55.4,30.17,East,101,0.0,4.0,79,0.00,,,0.00,meteohub,2013-03-10 13:21:00,
2013-03-10 09:26:00,62.6,55.6,30.17,ESE,118,1.0,6.0,78,0.00,,,0.00,meteohub,2013-03-10 13:26:00,
2013-03-10 09:31:00,63.1,55.4,30.17,ENE,61,2.0,6.0,76,0.00,,,0.00,meteohub,2013-03-10 13:31:00,
2013-03-10 09:36:00,63.3,55.2,30.17,SE,124,3.0,6.0,75,0.00,,,0.00,meteohub,2013-03-10 13:36:00,
2013-03-10 09:41:00,63.7,55.2,30.16,East,96,5.0,7.0,74,0.00,,,0.00,meteohub,2013-03-10 13:41:00,
2013-03-10 09:46:00,64.0,55.6,30.16,East,83,2.0,7.0,74,0.00,,,0.00,meteohub,2013-03-10 13:46:00,
2013-03-10 09:51:00,64.2,55.0,30.16,ESE,104,2.0,7.0,72,0.00,,,0.00,meteohub,2013-03-10 13:51:00,
2013-03-10 09:56:00,64.9,55.8,30.16,East,95,1.0,6.0,72,0.00,,,0.00,meteohub,2013-03-10 13:56:00,
2013-03-10 10:01:00,65.8,55.8,30.16,NE,50,0.0,8.0,70,0.00,,,0.00,meteohub,2013-03-10 14:01:00,
2013-03-10 10:06:00,66.7,55.8,30.16,ENE,63,0.0,8.0,68,0.00,,,0.00,meteohub,2013-03-10 14:06:00,
2013-03-10 10:11:00,67.6,55.9,30.17,East,92,3.0,8.0,66,0.00,,,0.00,meteohub,2013-03-10 14:11:00,
2013-03-10 10:16:00,68.5,56.3,30.17,East,82,2.0,9.0,65,0.00,,,0.00,meteohub,2013-03-10 14:16:00,
2013-03-10 10:21:00,69.6,56.5,30.17,ESE,112,3.0,9.0,63,0.00,,,0.00,meteohub,2013-03-10 14:21:00,
2013-03-10 10:26:00,69.6,55.9,30.17,East,94,7.0,7.0,62,0.00,,,0.00,meteohub,2013-03-10 14:26:00,
2013-03-10 10:31:00,69.3,56.1,30.17,NE,46,6.0,9.0,63,0.00,,,0.00,meteohub,2013-03-10 14:31:00,
2013-03-10 10:36:00,68.9,55.8,30.17,East,95,3.0,9.0,63,0.00,,,0.00,meteohub,2013-03-10 14:36:00,
2013-03-10 10:41:00,69.1,55.9,30.17,ESE,121,1.0,10.0,63,0.00,,,0.00,meteohub,2013-03-10 14:41:00,
2013-03-10 10:46:00,69.3,56.1,30.17,ESE,110,2.0,10.0,63,0.00,,,0.00,meteohub,2013-03-10 14:46:00,
2013-03-10 10:51:00,70.0,56.3,30.16,ESE,103,4.0,10.0,62,0.00,,,0.00,meteohub,2013-03-10 14:51:00,
2013-03-10 10:56:00,70.5,55.9,30.16,ENE,77,4.0,10.0,60,0.00,,,0.00,meteohub,2013-03-10 14:56:00,
2013-03-10 11:01:00,70.5,55.9,30.16,ENE,74,3.0,9.0,60,0.00,,,0.00,meteohub,2013-03-10 15:01:00,
2013-03-10 11:06:00,71.4,56.8,30.16,East,84,3.0,15.0,60,0.00,,,0.00,meteohub,2013-03-10 15:06:00,
2013-03-10 11:11:00,72.1,56.5,30.15,East,90,5.0,15.0,58,0.00,,,0.00,meteohub,2013-03-10 15:11:00,
2013-03-10 11:16:00,73.0,56.8,30.14,ENE,78,2.0,10.0,57,0.00,,,0.00,meteohub,2013-03-10 15:16:00,
2013-03-10 11:21:00,73.4,56.7,30.14,ENE,77,13.0,13.0,56,0.00,,,0.00,meteohub,2013-03-10 15:21:00,
2013-03-10 11:26:00,73.0,56.8,30.14,East,96,8.0,13.0,57,0.00,,,0.00,meteohub,2013-03-10 15:26:00,
2013-03-10 11:31:00,73.0,56.5,30.13,East,79,2.0,13.0,56,0.00,,,0.00,meteohub,2013-03-10 15:31:00,
2013-03-10 11:36:00,73.4,57.2,30.13,East,94,2.0,13.0,57,0.00,,,0.00,meteohub,2013-03-10 15:36:00,
2013-03-10 11:41:00,73.6,56.8,30.13,East,93,5.0,13.0,56,0.00,,,0.00,meteohub,2013-03-10 15:41:00,
2013-03-10 11:46:00,73.2,56.1,30.13,ESE,106,4.0,13.0,55,0.00,,,0.00,meteohub,2013-03-10 15:46:00,
2013-03-10 11:51:00,73.6,56.8,30.12,NNE,32,2.0,13.0,56,0.00,,,0.00,meteohub,2013-03-10 15:51:00,
2013-03-10 11:56:00,74.3,56.7,30.12,East,101,1.0,13.0,54,0.00,,,0.00,meteohub,2013-03-10 15:56:00,
2013-03-10 12:01:00,74.8,56.5,30.12,NE,54,3.0,13.0,53,0.00,,,0.00,meteohub,2013-03-10 16:01:00,
2013-03-10 12:06:00,74.8,56.5,30.12,ESE,107,9.0,11.0,53,0.00,,,0.00,meteohub,2013-03-10 16:06:00,
2013-03-10 12:11:00,74.8,56.1,30.12,East,94,7.0,11.0,52,0.00,,,0.00,meteohub,2013-03-10 16:11:00,
2013-03-10 12:21:00,75.6,56.1,30.12,East,80,3.0,15.0,51,0.00,,,0.00,meteohub,2013-03-10 16:21:00,
2013-03-10 12:26:00,75.9,56.5,30.12,ESE,114,4.0,15.0,51,0.00,,,0.00,meteohub,2013-03-10 16:26:00,
2013-03-10 12:31:00,76.3,56.3,30.12,East,82,6.0,15.0,50,0.00,,,0.00,meteohub,2013-03-10 16:31:00,
2013-03-10 12:36:00,76.5,56.5,30.12,ENE,76,4.0,10.0,50,0.00,,,0.00,meteohub,2013-03-10 16:36:00,
2013-03-10 12:41:00,76.5,56.5,30.12,East,95,6.0,11.0,50,0.00,,,0.00,meteohub,2013-03-10 16:41:00,
2013-03-10 12:46:00,76.6,56.1,30.13,East,101,1.0,11.0,49,0.00,,,0.00,meteohub,2013-03-10 16:46:00,
2013-03-10 12:51:00,77.2,56.5,30.13,NNE,32,4.0,11.0,49,0.00,,,0.00,meteohub,2013-03-10 16:51:00,
2013-03-10 12:56:00,77.7,56.5,30.13,NNE,14,7.0,10.0,48,0.00,,,0.00,meteohub,2013-03-10 16:56:00,
2013-03-10 13:01:00,78.1,56.3,30.13,NNE,17,5.0,12.0,47,0.00,,,0.00,meteohub,2013-03-10 17:01:00,
2013-03-10 13:06:00,78.1,56.3,30.12,East,98,6.0,12.0,47,0.00,,,0.00,meteohub,2013-03-10 17:06:00,
2013-03-10 13:11:00,78.4,55.9,30.12,NNE,26,2.0,12.0,46,0.00,,,0.00,meteohub,2013-03-10 17:11:00,
2013-03-10 13:16:00,78.6,56.1,30.12,ENE,76,3.0,10.0,46,0.00,,,0.00,meteohub,2013-03-10 17:16:00,
2013-03-10 13:21:00,78.4,55.9,30.12,ENE,70,3.0,14.0,46,0.00,,,0.00,meteohub,2013-03-10 17:21:00,
2013-03-10 13:26:00,78.6,56.1,30.12,ESE,118,1.0,14.0,46,0.00,,,0.00,meteohub,2013-03-10 17:26:00,
2013-03-10 13:31:00,79.0,55.8,30.12,ESE,104,7.0,14.0,45,0.00,,,0.00,meteohub,2013-03-10 17:31:00,
2013-03-10 13:36:00,79.0,55.8,30.12,NE,38,3.0,12.0,45,0.00,,,0.00,meteohub,2013-03-10 17:36:00,
2013-03-10 13:41:00,79.2,55.9,30.12,ENE,71,2.0,12.0,45,0.00,,,0.00,meteohub,2013-03-10 17:41:00,
2013-03-10 13:46:00,79.2,55.4,30.11,ENE,64,4.0,12.0,44,0.00,,,0.00,meteohub,2013-03-10 17:46:00,
2013-03-10 13:51:00,79.3,55.6,30.11,ESE,110,9.0,11.0,44,0.00,,,0.00,meteohub,2013-03-10 17:51:00,
2013-03-10 14:01:00,79.5,55.8,30.10,North,0,2.0,10.0,44,0.00,,,0.00,meteohub,2013-03-10 18:01:00,
2013-03-10 14:06:00,79.3,55.6,30.10,East,101,7.0,10.0,44,0.00,,,0.00,meteohub,2013-03-10 18:06:00,
2013-03-10 14:11:00,79.3,55.6,30.10,ENE,69,5.0,10.0,44,0.00,,,0.00,meteohub,2013-03-10 18:11:00,
2013-03-10 14:16:00,79.9,55.9,30.10,NNE,17,7.0,10.0,44,0.00,,,0.00,meteohub,2013-03-10 18:16:00,
2013-03-10 14:21:00,80.2,56.3,30.10,East,88,6.0,9.0,44,0.00,,,0.00,meteohub,2013-03-10 18:21:00,
2013-03-10 14:26:00,80.1,55.6,30.09,East,101,1.0,12.0,43,0.00,,,0.00,meteohub,2013-03-10 18:26:00,
2013-03-10 14:31:00,80.4,55.9,30.09,North,10,5.0,12.0,43,0.00,,,0.00,meteohub,2013-03-10 18:31:00,
2013-03-10 14:36:00,80.8,55.6,30.09,ESE,121,4.0,12.0,42,0.00,,,0.00,meteohub,2013-03-10 18:36:00,
2013-03-10 14:41:00,80.8,56.1,30.09,ENE,65,3.0,10.0,43,0.00,,,0.00,meteohub,2013-03-10 18:41:00,
2013-03-10 14:46:00,80.8,56.1,30.09,ENE,67,2.0,11.0,43,0.00,,,0.00,meteohub,2013-03-10 18:46:00,
2013-03-10 14:51:00,80.6,56.1,30.09,SE,126,4.0,12.0,43,0.00,,,0.00,meteohub,2013-03-10 18:51:00,
2013-03-10 14:56:00,80.6,56.1,30.09,East,95,6.0,12.0,43,0.00,,,0.00,meteohub,2013-03-10 18:56:00,
2013-03-10 15:01:00,80.8,56.1,30.09,East,101,5.0,12.0,43,0.00,,,0.00,meteohub,2013-03-10 19:01:00,
2013-03-10 15:11:00,81.5,56.1,30.09,East,83,2.0,9.0,42,0.00,,,0.00,meteohub,2013-03-10 19:11:00,
2013-03-10 15:16:00,81.9,56.5,30.09,East,80,2.0,8.0,42,0.00,,,0.00,meteohub,2013-03-10 19:16:00,
2013-03-10 15:21:00,82.0,56.7,30.09,NNE,24,3.0,8.0,42,0.00,,,0.00,meteohub,2013-03-10 19:21:00,
2013-03-10 15:26:00,82.4,56.3,30.08,NE,39,9.0,9.0,41,0.00,,,0.00,meteohub,2013-03-10 19:26:00,
2013-03-10 15:31:00,81.9,56.5,30.08,NNE,17,4.0,10.0,42,0.00,,,0.00,meteohub,2013-03-10 19:31:00,
2013-03-10 15:36:00,81.5,56.1,30.08,NE,46,6.0,10.0,42,0.00,,,0.00,meteohub,2013-03-10 19:36:00,
2013-03-10 15:41:00,81.1,56.5,30.08,ENE,69,4.0,10.0,43,0.00,,,0.00,meteohub,2013-03-10 19:41:00,
2013-03-10 15:46:00,81.5,56.1,30.08,NE,55,6.0,14.0,42,0.00,,,0.00,meteohub,2013-03-10 19:46:00,
2013-03-10 15:51:00,81.7,56.3,30.08,North,5,5.0,14.0,42,0.00,,,0.00,meteohub,2013-03-10 19:51:00,
2013-03-10 16:01:00,81.9,56.5,30.08,East,98,0.0,10.0,42,0.00,,,0.00,meteohub,2013-03-10 20:01:00,
2013-03-10 16:06:00,80.2,58.8,30.08,SSW,194,7.0,10.0,48,0.00,,,0.00,meteohub,2013-03-10 20:06:00,
2013-03-10 16:11:00,76.3,57.9,30.08,ESE,113,4.0,10.0,53,0.00,,,0.00,meteohub,2013-03-10 20:11:00,
2013-03-10 16:16:00,74.8,57.6,30.08,SSW,193,5.0,8.0,55,0.00,,,0.00,meteohub,2013-03-10 20:16:00,
2013-03-10 16:21:00,73.9,57.2,30.07,WSW,256,2.0,8.0,56,0.00,,,0.00,meteohub,2013-03-10 20:21:00,
2013-03-10 16:26:00,73.2,57.0,30.08,South,169,4.0,8.0,57,0.00,,,0.00,meteohub,2013-03-10 20:26:00,
2013-03-10 16:31:00,72.9,57.2,30.08,South,186,4.0,10.0,58,0.00,,,0.00,meteohub,2013-03-10 20:31:00,
2013-03-10 16:41:00,72.1,57.0,30.08,SSW,204,4.0,9.0,59,0.00,,,0.00,meteohub,2013-03-10 20:41:00,
2013-03-10 16:46:00,71.4,57.2,30.07,ESE,119,1.0,9.0,61,0.00,,,0.00,meteohub,2013-03-10 20:46:00,
2013-03-10 16:52:00,71.4,57.7,30.07,South,182,9.0,10.0,62,0.00,,,0.00,meteohub,2013-03-10 20:52:00,
2013-03-10 17:01:00,71.8,58.1,30.07,SW,226,5.0,9.0,62,0.00,,,0.00,meteohub,2013-03-10 21:01:00,
2013-03-10 17:11:00,71.8,58.1,30.07,SSW,209,4.0,9.0,62,0.00,,,0.00,meteohub,2013-03-10 21:11:00,
2013-03-10 17:17:00,72.3,58.1,30.06,WSW,238,2.0,9.0,61,0.00,,,0.00,meteohub,2013-03-10 21:17:00,
2013-03-10 17:26:00,72.5,57.7,30.06,SW,217,6.0,8.0,60,0.00,,,0.00,meteohub,2013-03-10 21:26:00,
2013-03-10 17:32:00,71.8,57.2,30.06,SSW,210,3.0,8.0,60,0.00,,,0.00,meteohub,2013-03-10 21:32:00,
2013-03-10 17:36:00,72.0,57.4,30.06,East,96,2.0,7.0,60,0.00,,,0.00,meteohub,2013-03-10 21:36:00,
2013-03-10 17:46:00,72.3,57.2,30.06,South,184,0.0,10.0,59,0.00,,,0.00,meteohub,2013-03-10 21:46:00,
2013-03-10 17:56:00,72.5,57.4,30.06,SE,140,2.0,8.0,59,0.00,,,0.00,meteohub,2013-03-10 21:56:00,
2013-03-10 18:01:00,72.3,57.2,30.06,SE,143,3.0,7.0,59,0.00,,,0.00,meteohub,2013-03-10 22:01:00,
2013-03-10 18:06:00,72.3,57.7,30.06,SW,220,2.0,7.0,60,0.00,,,0.00,meteohub,2013-03-10 22:06:00,
2013-03-10 18:12:00,72.1,57.0,30.06,SSW,211,2.0,7.0,59,0.00,,,0.00,meteohub,2013-03-10 22:12:00,
2013-03-10 18:21:00,71.4,58.1,30.06,West,268,1.0,5.0,63,0.00,,,0.00,meteohub,2013-03-10 22:21:00,
2013-03-10 18:26:00,71.4,57.7,30.07,NW,319,0.0,5.0,62,0.00,,,0.00,meteohub,2013-03-10 22:26:00,
2013-03-10 18:31:00,71.2,58.5,30.07,WNW,290,4.0,5.0,64,0.00,,,0.00,meteohub,2013-03-10 22:31:00,
2013-03-10 18:36:00,70.9,58.5,30.07,NNW,327,2.0,5.0,65,0.00,,,0.00,meteohub,2013-03-10 22:36:00,
2013-03-10 18:41:00,70.7,58.3,30.07,WNW,302,2.0,5.0,65,0.00,,,0.00,meteohub,2013-03-10 22:41:00,
2013-03-10 18:51:00,69.6,58.6,30.07,NW,322,1.0,5.0,68,0.00,,,0.00,meteohub,2013-03-10 22:51:00,
2013-03-10 18:56:00,69.4,58.5,30.08,WNW,290,2.0,6.0,68,0.00,,,0.00,meteohub,2013-03-10 22:56:00,
2013-03-10 19:06:00,68.7,59.0,30.08,WNW,301,3.0,5.0,71,0.00,,,0.00,meteohub,2013-03-10 23:06:00,
2013-03-10 19:16:00,67.8,58.8,30.08,NW,326,2.0,7.0,73,0.00,,,0.00,meteohub,2013-03-10 23:16:00,
2013-03-10 19:26:00,67.3,58.3,30.09,NNW,328,3.0,7.0,73,0.00,,,0.00,meteohub,2013-03-10 23:26:00,
2013-03-10 19:31:00,66.9,58.3,30.09,WNW,285,2.0,7.0,74,0.00,,,0.00,meteohub,2013-03-10 23:31:00,
2013-03-10 19:41:00,66.6,58.5,30.09,NNW,333,1.0,7.0,75,0.00,,,0.00,meteohub,2013-03-10 23:41:00,
2013-03-10 19:46:00,66.4,58.3,30.09,NW,320,5.0,6.0,75,0.00,,,0.00,meteohub,2013-03-10 23:46:00,
2013-03-10 19:51:00,66.0,58.3,30.09,NW,319,0.0,5.0,76,0.00,,,0.00,meteohub,2013-03-10 23:51:00,
2013-03-10 19:56:00,65.8,58.5,30.09,NNW,347,2.0,5.0,77,0.00,,,0.00,meteohub,2013-03-10 23:56:00,
2013-03-10 20:01:00,65.8,58.8,30.09,NNW,336,3.0,5.0,78,0.00,,,0.00,meteohub,2013-03-11 00:01:00,
2013-03-10 20:06:00,65.7,58.6,30.09,NNW,331,3.0,5.0,78,0.00,,,0.00,meteohub,2013-03-11 00:06:00,
2013-03-10 20:16:00,65.7,58.6,30.09,NW,320,2.0,5.0,78,0.00,,,0.00,meteohub,2013-03-11 00:16:00,
2013-03-10 20:21:00,65.5,58.5,30.09,NW,317,2.0,5.0,78,0.00,,,0.00,meteohub,2013-03-11 00:21:00,
2013-03-10 20:26:00,65.5,58.5,30.09,North,349,2.0,5.0,78,0.00,,,0.00,meteohub,2013-03-11 00:26:00,
2013-03-10 20:32:00,65.3,58.3,30.09,NNW,342,0.0,4.0,78,0.00,,,0.00,meteohub,2013-03-11 00:32:00,
2013-03-10 20:41:00,65.1,58.1,30.10,North,355,0.0,4.0,78,0.00,,,0.00,meteohub,2013-03-11 00:41:00,
2013-03-10 20:46:00,65.1,58.1,30.10,NW,317,1.0,4.0,78,0.00,,,0.00,meteohub,2013-03-11 00:46:00,
2013-03-10 20:51:00,65.1,58.1,30.10,NW,318,0.0,2.0,78,0.00,,,0.00,meteohub,2013-03-11 00:51:00,
2013-03-10 20:56:00,65.1,57.7,30.10,NNW,346,2.0,3.0,77,0.00,,,0.00,meteohub,2013-03-11 00:56:00,
2013-03-10 21:01:00,65.3,57.9,30.10,NNW,346,0.0,4.0,77,0.00,,,0.00,meteohub,2013-03-11 01:01:00,
2013-03-10 21:11:00,65.1,57.7,30.10,North,349,0.0,4.0,77,0.00,,,0.00,meteohub,2013-03-11 01:11:00,
2013-03-10 21:16:00,65.1,57.4,30.10,NNE,32,0.0,2.0,76,0.00,,,0.00,meteohub,2013-03-11 01:16:00,
2013-03-10 21:26:00,65.1,57.4,30.11,North,0,1.0,2.0,76,0.00,,,0.00,meteohub,2013-03-11 01:26:00,
2013-03-10 21:36:00,65.1,57.4,30.11,NE,35,1.0,3.0,76,0.00,,,0.00,meteohub,2013-03-11 01:36:00,
2013-03-10 21:41:00,65.1,57.0,30.11,North,0,1.0,3.0,75,0.00,,,0.00,meteohub,2013-03-11 01:41:00,
2013-03-10 21:52:00,65.1,57.4,30.11,North,0,0.0,2.0,76,0.00,,,0.00,meteohub,2013-03-11 01:52:00,
2013-03-10 22:01:00,65.1,57.4,30.12,North,5,1.0,1.0,76,0.00,,,0.00,meteohub,2013-03-11 02:01:00,
2013-03-10 22:07:00,65.1,57.0,30.12,North,0,0.0,4.0,75,0.00,,,0.00,meteohub,2013-03-11 02:07:00,
2013-03-10 22:16:00,65.1,57.0,30.12,North,5,0.0,4.0,75,0.00,,,0.00,meteohub,2013-03-11 02:16:00,
2013-03-10 22:22:00,65.1,57.0,30.12,North,5,0.0,3.0,75,0.00,,,0.00,meteohub,2013-03-11 02:22:00,
2013-03-10 22:31:00,64.9,56.5,30.12,North,9,2.0,2.0,74,0.00,,,0.00,meteohub,2013-03-11 02:31:00,
2013-03-10 22:41:00,64.9,56.5,30.12,NNE,12,1.0,3.0,74,0.00,,,0.00,meteohub,2013-03-11 02:41:00,
2013-03-10 22:46:00,64.9,56.5,30.12,NNE,12,1.0,3.0,74,0.00,,,0.00,meteohub,2013-03-11 02:46:00,
2013-03-10 22:56:00,64.6,56.1,30.11,NNE,12,2.0,2.0,74,0.00,,,0.00,meteohub,2013-03-11 02:56:00,
2013-03-10 23:01:00,64.6,56.5,30.12,NNE,13,0.0,2.0,75,0.00,,,0.00,meteohub,2013-03-11 03:01:00,
2013-03-10 23:06:00,64.4,56.3,30.11,NE,36,0.0,2.0,75,0.00,,,0.00,meteohub,2013-03-11 03:06:00,
2013-03-10 23:11:00,64.2,56.1,30.11,NE,36,0.0,2.0,75,0.00,,,0.00,meteohub,2013-03-11 03:11:00,
2013-03-10 23:16:00,64.2,56.1,30.11,NE,44,0.0,2.0,75,0.00,,,0.00,meteohub,2013-03-11 03:16:00,
2013-03-10 23:26:00,64.6,56.5,30.12,NNE,23,2.0,5.0,75,0.00,,,0.00,meteohub,2013-03-11 03:26:00,
2013-03-10 23:31:00,64.9,56.8,30.12,NNE,30,2.0,5.0,75,0.00,,,0.00,meteohub,2013-03-11 03:31:00,
2013-03-10 23:41:00,66.0,57.2,30.12,East,98,5.0,5.0,73,0.00,,,0.00,meteohub,2013-03-11 03:41:00,
2013-03-10 23:46:00,66.6,57.2,30.11,ESE,102,3.0,5.0,72,0.00,,,0.00,meteohub,2013-03-11 03:46:00,
2013-03-10 23:52:00,66.9,57.2,30.11,East,91,2.0,8.0,71,0.00,,,0.00,meteohub,2013-03-11 03:52:00,